Tracking 19854 objects as of 24-Sep-2019
HD Live streaming from Space Station
objects crossing your sky now

COSMOS 1375 DEB

Track COSMOS 1375 DEB now!
10-day predictions


NORAD ID: 16377
Int'l Code: 1982-055R
Perigee: 864.3 km
Apogee: 936.4 km
Inclination: 65.8 °
Period: 102.8 minutes
Semi major axis: 7271 km
RCS: 0.033 m2 (small)
Launch date: June 6, 1982
Source: Commonwealth of Independent States (former USSR) (CIS)
Launch site: PLESETSK MISSILE AND SPACE COMPLEX (PKMTR)

Note: This is SATELLITE DEBRIS
aabbcc
Your satellite tracking list
Your tracking list is empty




NASA's NSSDC Master Catalog

Two Line Element Set (TLE):
1 16377U 82055R   19266.81030424 +.00000248 +00000-0 +22409-3 0  9994
2 16377 065.8243 243.5735 0049621 223.0339 213.2584 14.00168338722300
Source of the keplerian elements: AFSPC